{"data":{"norad_id":59671,"intl_designator":"2024-084T","name":"STARLINK-31854","alt_names":[],"object_type":"PAYLOAD","status":"ACTIVE","operator":null,"country":"US","launch_date":"2024-05-06","launch_site_code":"AFETR","launch_vehicle":null,"mission":null,"orbit_class":"UNKNOWN","rcs_meters":null,"size_class":null,"mass_kg":null,"dimensions":null,"purposes":["comms"],"wikipedia_slug":null,"has_3d_model":false,"image_url":null,"decayed_at":null,"tle_current":{"epoch":"2026-05-25T03:36:29.426976Z","epoch_age_seconds":58102,"freshness":"FRESH","line1":"1 59671U 24084T   26145.15034059  .00001655  00000+0  69686-4 0  9996","line2":"2 59671  43.0057 296.9651 0003491 281.4058  78.6402 15.27573178116429","mean_motion":15.27573178,"eccentricity":0.0003491,"inclination_deg":43.0057,"raan_deg":296.9651,"arg_perigee_deg":281.4058,"mean_anomaly_deg":78.6402,"bstar":6.9686e-5,"rev_number":11642,"period_min":94.2671697002,"perigee_km":480.67427644048,"apogee_km":485.46477083528,"semimajor_km":6861.2065236379,"source":"CELESTRAK","updated_at":"2026-05-25T13:38:19.021166Z"}}}